This is the latest recevied weather packets stored in our database for station/object K7ZQU-7. If no packets are shown the sender has not sent any weather packets the latest 10 day(s).
| Time | Temp. | Humidity | Pressure | Rain* | Wind** | Luminosity | Snow |
|---|---|---|---|---|---|---|---|
| 1777989151 | 8.33° C | 93% | 1012.6 hPa | 0 mm | 1.79 m/s, 305° | - | - |
| 1777988852 | 8.33° C | 92% | 1012.6 hPa | 0 mm | 0.89 m/s, 271° | - | - |
| 1777988550 | 8.33° C | 93% | 1012.5 hPa | 0 mm | 0.89 m/s, 339° | - | - |
| 1777988251 | 7.78° C | 92% | 1012.5 hPa | 0 mm | 1.34 m/s, 290° | - | - |
| 1777987952 | 7.78° C | 92% | 1012.4 hPa | 0 mm | 0.89 m/s, 300° | - | - |
| 1777987653 | 7.78° C | 92% | 1012.4 hPa | 0 mm | 1.79 m/s, 283° | - | - |
| 1777987354 | 7.78° C | 92% | 1012.4 hPa | 0 mm | 0.45 m/s, 269° | - | - |
| 1777987052 | 7.78° C | 91% | 1012.2 hPa | 0 mm | 1.34 m/s, 315° | - | - |
| 1777986753 | 7.78° C | 91% | 1012.2 hPa | 0 mm | 0.45 m/s, 277° | - | - |
| 1777986454 | 7.78° C | 91% | 1012.2 hPa | 0 mm | 0.45 m/s, 297° | - | - |
| 1777986155 | 7.78° C | 91% | 1012.2 hPa | 0 mm | 0 m/s | - | - |
| 1777985856 | 7.78° C | 92% | 1012.2 hPa | 0 mm | 1.34 m/s, 302° | - | - |
| 1777985554 | 8.33° C | 92% | 1012.2 hPa | 0 mm | 1.34 m/s, 322° | - | - |
| 1777985255 | 7.78° C | 91% | 1012.1 hPa | 0 mm | 1.79 m/s, 276° | - | - |
| 1777984956 | 8.33° C | 91% | 1012.1 hPa | 0 mm | 0 m/s | - | - |
| 1777984657 | 8.33° C | 91% | 1012.1 hPa | 0 mm | 1.34 m/s, 288° | - | - |
| 1777984358 | 8.33° C | 91% | 1012.1 hPa | 0 mm | 1.34 m/s, 339° | - | - |
| 1777984057 | 8.33° C | 91% | 1012 hPa | 0 mm | 0 m/s | - | - |
| 1777983459 | 8.33° C | 91% | 1012.1 hPa | 0 mm | 0 m/s | - | - |
| 1777983160 | 8.33° C | 91% | 1012.1 hPa | 0 mm | 0.89 m/s, 298° | - | - |
| 1777982861 | 8.33° C | 91% | 1012 hPa | 0 mm | 1.79 m/s, 325° | - | - |
| 1777982559 | 8.33° C | 90% | 1012 hPa | 0 mm | 0 m/s | - | - |
| 1777982260 | 8.33° C | 90% | 1012 hPa | 0 mm | 1.79 m/s, 300° | - | - |
| 1777981961 | 8.33° C | 90% | 1012 hPa | 0 mm | 0.89 m/s, 298° | - | - |
| 1777981662 | 8.33° C | 90% | 1012 hPa | 0 mm | 0 m/s | - | - |
* Rain latest hour (hover to see other rain measurements)
** Current wind speed in m/s (hover to see current wind gust speed)